Regional Weather Roundup
Issued by NWS Wakefield, VA

Home | Current Version | Previous Version | Graphics & Text | Print | Product List | Glossary On
Versions: 1 2 3 4 5 6 7 8 9 10 11 12 13 14 15 16 17 18 19 20 21 22 23 24 25 26 27 28 29 30 31 32 33 34 35 36 37 38 39 40 41 42 43 44 45 46 47 48 49 50
000
ASUS41 KAKQ 260815
RWRAKQ

REGIONAL WEATHER ROUNDUP
NATIONAL WEATHER SERVICE WAKEFIELD VA
400 AM EDT TUE JUL 26 2016

Note: "fair" indicates few or no clouds below 12,000 feet with no
significant weather and/or obstructions to visibility. * = Denotes
station may not report precipitation (e.g., rain,snow,etc.),
thunder or fog.

VAZ042-051-052>054-056-260900-
NORTHERN VIRGINIA

CITY           SKY/WX    TMP DP  RH WIND       PRES   REMARKS
WASH NATIONAL  MOCLDY    81  73  76 CALM      29.92S
DULLES         FAIR      79  72  79 CALM      29.94R
FORT BELVOIR   FAIR      76  74  95 CALM      29.92S
QUANTICO       NOT AVBL
FREDERICKSBRG* FAIR      79  78  96 W3        29.91S
STAFFORD*      FAIR      76  74  95 NW3       29.97R
WARRENTON      FAIR      76  70  82 CALM      29.93S
CULPEPER*      FAIR      76  76  99 CALM      29.94S
MANASSAS*      FAIR      79  75  89 NW5       29.93S
LEESBURG*      FAIR      79  75  89 CALM      29.95S
WINCHESTER     FAIR      73  72  94 CALM      29.95F
FRONT ROYAL*   FAIR      75  72  88 S3        29.94S
LURAY*         FAIR      73  73 100 CALM      29.97S
$$

VAZ048-049-060>072-079>083-260900-
CENTRAL AND SOUTH CENTRAL VIRGINIA

CITY           SKY/WX    TMP DP  RH WIND       PRES   REMARKS
RICHMOND       FAIR      81  74  79 SW6       29.92S
CHESTERFIELD*  FAIR      79  64  61 SW3       29.94S
PETERSBURG*    FAIR      81  75  81 W6        29.95R
HANOVER        FAIR      81  74  79 SW5       29.94S
TAPPAHANNOCK*  FAIR      79  79 100 S3        29.92S
QUINTON*       FAIR      80  76  88 CALM      29.92R
CHARLOTTSVILLE FAIR      81  71  71 SW3       29.94S
GORDONSVILLE*  FAIR      75  73  96 CALM      29.93F
ORANGE*          N/A     77  77 100 CALM      29.96R
LOUISA*        FAIR      79  75  89 CALM      29.93S
BUMPASS*       FAIR      75  75  99 CALM      29.94R
FARMVILLE*     FAIR      78  78 100 CALM      29.94S
CREWE*         FAIR      80  75  85 CALM      29.95R
FORT PICKETT*  FAIR      79  76  92 SW7       29.96R
CHASE CITY*    FAIR      76  74  94 CALM      29.97S
CLARKSVILLE*   FAIR      77  73  88 SW5       29.96S
SOUTH HILL*    FAIR      79  74  84 SW3       30.02R
LAWRENCEVILLE* FAIR      77  74  91 MISG      29.96S
EMPORIA*       FAIR      79  73  83 CALM      29.97S
$$

VAZ088>098-260900-
SOUTHEAST VIRGINIA

CITY           SKY/WX    TMP DP  RH WIND       PRES   REMARKS
NORFOLK        CLOUDY    82  73  74 SW18      29.93F
VIRGINIA BEACH MOCLDY    85  72  65 SW14      29.93F
NORFOLK NAVAL  MOCLDY    82  73  74 SW12      29.95S
WEST POINT*    FAIR      82  75  80 SW6       29.93S
SALUDA*        FAIR      82  77  84 SW8       29.91S
NEWPORT NEWS   FAIR      82  76  81 SW9       29.93S
LANGLEY AFB    FAIR      82  76  83 SW13      29.93S
FORT EUSTIS    FAIR      82  76  83 VRB1      29.92R
WILLIAMSBURG*  FAIR      82  75  78 W7        29.94S
HR EXEC AP*    FAIR      79  72  78 SW9       29.96F
FRANKLIN*      FAIR      79  73  83 SW6       29.95S
US460-WAKEFLD  FAIR      80  75  84 SW7       29.93F
$$

VAZ020-022-025-037-045-260900-
WEST CENTRAL AND SOUTHWEST VIRGINIA

CITY           SKY/WX    TMP DP  RH WIND       PRES   REMARKS
STAUNTON*      FAIR      72  70  93 CALM      30.02R
WAYNESBORO*    FAIR      79  70  73 W5        30.01S
HOT SPRINGS VA MOCLDY    72  72 100 W12       30.14F FOG
LYNCHBURG      FAIR      73  71  93 CALM      29.99S
DANVILLE       FAIR      76  72  87 CALM      29.97S
SOUTH BOSTON*  FAIR      77  75  93 CALM      29.96S
MARTINSVILLE   FAIR      72  71  97 CALM      30.03R
ROANOKE        FAIR      76  73  91 NE3       30.02F
BLACKSBURG     FAIR      71  70  97 CALM      30.11R
DUBLIN*        FAIR      73  72  96 CALM      30.09S
MARION*        FAIR      69  68  95 W5        30.14R
HILLSVILLE*    FAIR      70  70 100 W3        30.11S
RICHLANDS*     FOG       69  69 100 CALM      30.12S VSB 1/2
WISE*          FAIR      70  68  94 CALM      30.14S FOG
ABINGDON*      FAIR      72  70  95 CALM      30.09F
$$

MDZ021>025-VAZ099-100-260900-
SOUTHERN MARYLAND AND THE DELMARVA PENINSULA

CITY           SKY/WX    TMP DP  RH WIND       PRES   REMARKS
PATUXENT RIVER CLOUDY    79  76  90 CALM      29.89S
BAY BRIDGE APT MOCLDY    77  73  88 CALM      29.90F
LEONARDTOWN    CLOUDY    77  73  88 CALM      29.92S
DOVER          PTCLDY    77  75  92 W6        29.88F
GEORGETOWN     CLOUDY    75  73  93 W6        29.89S
EASTON         MOCLDY    76  76 100 N3        29.94S
CAMBRIDGE      CLOUDY    72  72 100 CALM      29.89S
SALISBURY      CLOUDY    75  74  96 S7        29.89F
OCEAN CITY     CLOUDY    78  73  84 W12       29.86F
WALLOPS ISLAND LGT RAIN  78  75  90 S7        29.89F
ACCOMACK*      CLOUDY    82  75  78 CALM      29.91F
$$

NCZ012>017-030>032-260900-
NORTH CENTRAL AND EASTERN NORTH CAROLINA

CITY           SKY/WX    TMP DP  RH WIND       PRES   REMARKS
ROANOKE RAPIDS FAIR      77  72  83 SW7       29.96S
RALEIGH        PTCLDY    79  72  79 SW8       29.99S
ELIZABETH CITY CLEAR     79  73  82 SW10      29.96F
AHOSKIE*       PTCLDY    76  73  88 S3        29.97S
EDENTON*       MOCLDY    82  73  73 SW8       29.99S
CURRITUCK*     CLEAR     80  73  79 SW9       29.97S
KILL DEVIL HLS CLEAR     81  73  78 SW7       29.97S
MANTEO           N/A     80  76  86 W14       29.98S
CAPE HATTERAS  PTCLDY    81  76  84 W7        30.01R
TARBORO*       FAIR      78  73  84 S6        29.98F
GOLDSBORO      CLOUDY    78  77  97 SW7       29.98F
WASHINGTON     NOT AVBL
GREENVILLE     PTCLDY    79  73  83 SW8       30.01S
NEW BERN       MOCLDY    78  73  84 SW7       30.02S
WILMINGTON     CLEAR     78  73  84 SW8       30.02S
$$

VAZ048-260900-
ELSEWHERE

CITY           SKY/WX    TMP DP  RH WIND       PRES   REMARKS
HARRISBURG PA  MOCLDY    72  72 100 CALM      29.93R
BALTIMORE      CLOUDY    76  72  87 NW3       29.91F
ANNAPOLIS      MOCLDY    78  75  90 W5        29.90S
ANDREWS AFB    FAIR      75  73  92 NW5       29.92S
PHILADELPHIA   MOCLDY    75  73  93 NW7       29.91S
GREENSBORO     PTCLDY    80  70  71 SW8       30.00R
ROCKY MOUNT    CLEAR     78  73  84 S7        29.98S
$$

VAZ100-260900-
MARINE

STATION/POSITION TIME  TEMP    WIND        PRES    WAVE   SWELL
                       AIR SEA DIR/SP/G            HT/PER HT/PER
                 (UTC) (F)     (DEG/KT/KT) (MB)    (FT/S) (FT/S)
BRANDYWINE LGT   0700   76     330/  4/  6   N/A
CAPE MAY NJ      0700   74 74   CALM  /  1 1011.5F
LEWES DE         0700   76 75  280/  3/  3 1011.4F
OCEAN-CITY-INLET 0700   74 70  240/  9/ 10 1012.3F
WACHAPREAGUE VA  0700   84 85  230/  6/ 11 1012.9F
THOMAS POINT MD  0800   79 83  360/  5/  5 1014.0F
GOOSES REEF MD   0800   81 84  300/  8/ 10 1013.5F   0
COVE POINT MD    0700   79     320/  2/  4 1012.9F
SOLOMONS ISLAND  0712   80 84  260/  5/  6   N/A
BISHOPS HEAD MD  0700   81 87  170/  3/  4 1012.5F
PINEY POINT MD   0700          220/  8/  9   N/A
POTOMAC MD       0800   83 87  230/ 10/ 12 1011.1F   1
CAMBRIDGE MD     0700   76 87  190/  1/  4 1011.6F
LEWISETTA VA     0700   82 84  170/  6/  7 1012.2F
RAPPAHANNOCK LGT 0700          220/ 18/ 19 1013.4S
STINGRAY PT      0800   85 85  200/ 14/ 17 1013.0F   1/ 2
YORK RVR RNG VA  0700   84     250/ 15/ 17 1012.7R
YORKTOWN VA      0700   83 83  220/ 11/ 17 1012.7S
JAMESTOWN VA     0800   83 88  250/  8/ 12   N/A
DOMINION TERM VA 0700   83     230/ 15/ 19 1013.5R
KIPTOPEKE VA     0700      83  240/ 13/ 17   N/A
CHES BAY BRIDGE  0700   83 72  200/ 15/ 18 1013.5R
CAPE HENRY VA    0700   82     220/  8/ 13   N/A
WILLOUBY STN VA  0700   82     220/ 14/ 17   N/A
CAPE HENRY BUOY  0712      76                N/A     3/ 5
1ST LANDING BUOY 0800   81 78  220/ 16/ 21 1012.9F
CAPE CHARLES BUO 0726      70                N/A     2/ 4
OFFSHORE WE BUOY 0721      81                N/A     3/ 5
64NM E OF VA BCH 0750   82 80  240/ 17/ 21 1013.8F   4/ 6
DUCK PIER NC     0700   82 62  230/ 20/ 22 1014.4S
44100 DUCK FRF   0705      74                N/A     3/ 3
44056 DUCK FRF   0711      65                N/A     1/ 8
OREGON INLET NC  0700   82 85  230/ 17/ 23 1015.2F
HATTERAS NC      0700   81 83  230/  8/ 13 1015.7F
DIAMOND SHLS NC  0750   84 85  250/ 17/ 23 1016.1R   5/ 5
CAPE LOOKOUT NC  0800   83     250/ 14/ 17 1016.2R
$$



USA.gov is the U.S. government's official web portal to all federal, state and local government web resources and services.